Stations météo

réclame
Mon MeteoGroup
Manschnow, Allemagne (10396): Température de l'air & dewpoint: 15.07.2019 19:00:00 - 21.07.2019 19:00:00 (CEST)Manschnow, Allemagne (10396): Température de l'air 5cm & Température de l'air -5cm: 15.07.2019 19:00:00 - 21.07.2019 19:00:00 (CEST)Manschnow, Allemagne (10396): Température de l'air -20cm & Température de l'air -100cm: 15.07.2019 19:00:00 - 21.07.2019 19:00:00 (CEST)Manschnow, Allemagne (10396): Vitesse du vent & gusts: 15.07.2019 19:00:00 - 21.07.2019 19:00:00 (CEST)Manschnow, Allemagne (10396): Direction du vent: 15.07.2019 19:00:00 - 21.07.2019 19:00:00 (CEST)Manschnow, Allemagne (10396): reduced air pressure: 15.07.2019 19:00:00 - 21.07.2019 19:00:00 (CEST)Manschnow, Allemagne (10396): visibility: 15.07.2019 19:00:00 - 21.07.2019 19:00:00 (CEST)Manschnow, Allemagne (10396): Ensoleillement: 15.07.2019 19:00:00 - 21.07.2019 19:00:00 (CEST)Manschnow, Allemagne (10396): Quantités de précipitations: 15.07.2019 19:00:00 - 21.07.2019 19:00:00 (CEST)
Date & Time tt [°C] td [°C] tt 5cm [°C] tt -5cm [°C] tt -20cm [°C] tt -100cm [°C] ff [km/h] ff [knt] fx [km/h] fx [knt] dd ppp [hPa] vv [km] sd [min] rr [mm]
21.07.2019 19:00:00 26,1 13,2 27,5 26,4 25,3 18,8 13 7 28 15 NW 1018,5 57 36 0,0
21.07.2019 18:00:00 26,7 13,7 28,9 28,1 25,2 18,8 16 8 39 21 WNW 1018,2 48 51 0,0
21.07.2019 17:00:00 26,1 13,3 27,0 28,2 25,1 18,7 15 8 30 16 WNW 1017,9 55 36 0,0
21.07.2019 16:00:00 26,6 13,5 28,7 29,2 24,8 18,7 15 8 31 17 W 1017,7 58 39 0,0
21.07.2019 15:00:00 25,4 14,6 27,1 30,0 24,3 18,7 13 7 34 18 WNW 1017,7 49 45 0,0
21.07.2019 14:00:00 25,9 14,5 29,5 29,1 23,8 18,7 16 9 28 15 W 1017,8 33 33 0,0
21.07.2019 13:00:00 24,3 16,2 27,9 28,3 23,3 18,7 13 7 31 17 WNW 1017,9 40 31 0,0
21.07.2019 12:00:00 23,0 16,6 25,6 27,1 22,9 18,7 12 7 22 12 W 1017,4 27 25 0,0
21.07.2019 11:00:00 21,2 17,1 22,5 25,7 22,6 18,6 12 7 21 12 W 1017,3 21 13 0,0
21.07.2019 10:00:00 19,9 17,3 21,0 23,8 22,4 18,6 13 7 24 13 W 1016,4 20 12 0,0
21.07.2019 09:00:00 19,7 17,5 21,4 23,0 22,4 18,6 14 8 21 12 W 1015,7 19 25 0,0
21.07.2019 08:00:00 18,3 16,7 19,0 21,7 22,5 18,6 8 4 13 7 SW 1014,9 20 39 0,0
21.07.2019 07:00:00 17,2 16,2 17,0 19,9 22,8 18,6 2 1 4 2 ESE 1014,6 9 12 0,0
21.07.2019 06:00:00 16,4 15,9 15,9 19,3 23,2 18,6 5 3 15 8 SW 1014,4 6 0 0,1
21.07.2019 05:00:00 15,9 15,4 15,5 19,4 23,8 18,6 8 5 13 7 SW 1014,3 13 0 0,1
21.07.2019 04:00:00 15,9 15,3 15,5 20,2 24,4 18,6 8 5 14 7 SSW 1013,7 27 0 0,0
21.07.2019 03:00:00 16,6 16,0 16,2 21,2 25,0 18,6 4 2 10 5 S 1013,5 18 0 0,0
21.07.2019 02:00:00 17,5 16,6 17,4 21,9 25,6 18,5 4 2 15 8 E 1013,4 26 0 2,3
21.07.2019 01:00:00 17,5 16,6 17,2 22,7 26,2 18,5 15 8 77 41 W 1015,6 2,9 0 5,9
21.07.2019 00:00:00 22,3 14,0 22,1 25,4 26,7 18,5 42 23 62 33 W 1013,5 16 0 0,0
20.07.2019 23:00:00 22,9 14,0 21,6 26,2 27,2 18,5 8 4 14 8 E 1011,7 20 0 0,0
20.07.2019 22:00:00 23,4 14,2 20,8 27,6 27,7 18,5 7 4 12 7 E 1012,0 41 0 0,0
20.07.2019 21:00:00 26,6 13,6 24,0 29,5 28,0 18,5 5 3 10 5 E 1012,0 17 14 0,0
20.07.2019 20:00:00 29,0 12,0 28,8 31,3 28,2 18,5 6 3 22 12 SE 1012,1 50 13 0,0
20.07.2019 19:00:00 28,9 11,8 28,8 33,2 28,1 18,5 11 6 23 12 SE 1012,0 45 33 0,0
20.07.2019 18:00:00 29,3 11,4 30,8 34,6 27,8 18,5 12 7 26 14 S 1012,7 53 56 0,0
20.07.2019 17:00:00 29,8 11,8 32,4 36,3 27,3 18,5 11 6 26 14 SSE 1013,1 60 60 0,0
20.07.2019 16:00:00 29,9 11,7 34,0 37,3 26,5 18,4 11 6 26 14 SE 1013,6 31 58 0,0
20.07.2019 15:00:00 28,8 12,0 33,0 36,3 25,7 18,4 14 8 30 16 S 1014,3 35 48 0,0
20.07.2019 14:00:00 27,6 12,2 30,6 35,8 24,8 18,4 14 8 23 13 SSW 1014,6 29 42 0,0
20.07.2019 13:00:00 27,6 10,8 31,2 35,1 23,7 18,4 11 6 26 14 S 1014,9 27 59 0,0
20.07.2019 12:00:00 26,6 13,8 31,3 34,6 22,6 18,4 4 2 22 12 WNW 1014,9 25 58 0,0
20.07.2019 11:00:00 25,1 15,2 29,0 31,2 21,6 18,4 8 5 17 9 ESE 1015,3 23 60 0,0
20.07.2019 10:00:00 23,7 16,3 27,0 27,7 21,0 18,4 4 2 14 7 E 1015,3 21 60 0,0
20.07.2019 09:00:00 21,6 16,1 24,8 24,2 20,6 18,4 3 2 8 4 WNW 1015,5 19 60 0,0
20.07.2019 08:00:00 18,9 16,3 20,5 20,8 20,6 18,4 4 2 9 5 S 1015,4 10 60 0,0
20.07.2019 07:00:00 16,2 15,4 16,4 18,3 20,8 18,3 2 1 5 3 S 1015,3 4,2 33 0,0
20.07.2019 06:00:00 13,2 12,9 12,8 17,4 21,2 18,3 2 1 4 2 SSE 1015,4 0,1 0 0,0
20.07.2019 05:00:00 14,2 13,6 11,7 17,8 21,6 18,3 3 2 5 3 SW 1015,2 6 0 0,0
20.07.2019 04:00:00 13,5 12,9 12,4 18,4 22,0 18,3 3 2 5 3 SSE 1014,9 1,6 0 0,0
20.07.2019 03:00:00 15,3 14,7 12,8 19,0 22,4 18,3 3 1 7 4 S 1014,7 6 0 0,0
20.07.2019 02:00:00 15,0 14,3 13,7 19,7 22,8 18,3 3 2 5 3 SE 1014,7 3,7 0 0,0
20.07.2019 01:00:00 15,5 14,6 14,8 20,3 23,2 18,3 2 1 4 2 SSW 1014,7 8 0 0,0
20.07.2019 00:00:00 16,2 14,8 14,4 20,9 23,7 18,3 2 1 5 3 S 1014,6 13 0 0,0
19.07.2019 23:00:00 16,6 15,4 15,5 22,0 24,2 18,3 5 3 8 4 SSE 1014,4 12 0 0,0
19.07.2019 22:00:00 17,3 15,4 16,4 23,2 24,6 18,3 5 3 7 4 SSE 1014,3 25 0 0,0
19.07.2019 21:00:00 19,2 15,8 19,0 24,6 25,0 18,2 5 3 9 5 SSE 1013,8 40 0 0,0
19.07.2019 20:00:00 19,6 16,0 20,1 25,7 25,3 18,2 4 2 26 14 ESE 1013,7 37 0 0,0
19.07.2019 19:00:00 22,1 15,1 22,4 27,8 25,3 18,2 11 6 27 14 NW 1013,6 35 0 0,0
19.07.2019 18:00:00 25,3 13,2 26,3 29,7 25,2 18,2 13 7 24 13 W 1013,1 35 1 0,0
19.07.2019 17:00:00 25,7 13,1 26,9 29,9 25,0 18,2 15 8 28 15 SW 1012,9 42 0 0,0
19.07.2019 16:00:00 25,8 13,0 27,5 31,3 24,6 18,2 18 10 29 16 SSW 1012,9 31 10 0,0
19.07.2019 15:00:00 25,7 11,8 26,7 31,5 24,0 18,2 14 8 28 15 WSW 1012,9 47 13 0,0
19.07.2019 14:00:00 26,4 11,5 29,5 33,8 23,1 18,2 14 7 26 14 WSW 1012,9 24 50 0,0
19.07.2019 13:00:00 25,1 12,5 29,6 30,1 22,4 18,2 13 7 24 13 W 1013,1 28 13 0,0
19.07.2019 12:00:00 24,2 12,0 25,8 28,4 21,8 18,2 13 7 27 15 W 1013,0 41 15 0,0
19.07.2019 11:00:00 23,1 11,7 25,3 25,9 21,3 18,2 10 6 23 12 WSW 1012,8 43 4 0,0
19.07.2019 10:00:00 22,8 11,5 24,3 25,6 20,9 18,1 15 8 23 13 WSW 1012,4 29 34 0,0
19.07.2019 09:00:00 21,3 11,2 22,5 23,1 20,7 18,1 12 7 19 11 WSW 1012,1 26 48 0,0
19.07.2019 08:00:00 18,7 11,1 19,7 19,9 20,8 18,1 5 3 8 5 S 1011,8 33 13 0,0
19.07.2019 07:00:00 15,4 10,9 15,6 18,5 21,1 18,1 4 2 11 6 E 1011,6 40 0 0,0
19.07.2019 06:00:00 14,3 10,0 13,9 18,0 21,5 18,1 7 4 13 7 E 1011,5 44 0 0,0
19.07.2019 05:00:00 14,1 9,9 13,0 18,5 21,9 18,1 9 5 14 8 E 1011,4 46 0 0,0
19.07.2019 04:00:00 15,8 9,7 15,2 19,3 22,3 18,1 9 5 17 9 E 1011,4 58 0 0,0
19.07.2019 03:00:00 17,0 9,3 16,4 20,0 22,7 18,1 9 5 16 9 E 1011,6 59 0 0,0
19.07.2019 02:00:00 17,2 9,2 16,2 20,4 23,2 18,1 10 5 18 10 E 1012,1 59 0 0,0
19.07.2019 01:00:00 17,9 9,8 17,4 21,1 23,8 18,1 9 5 15 8 ENE 1012,1 55 0 0,0
19.07.2019 00:00:00 18,0 10,0 16,7 21,7 24,4 18,1 9 5 15 8 ENE 1012,0 63 0 0,0
18.07.2019 23:00:00 18,7 10,7 16,1 22,8 25,0 18,1 7 4 14 8 E 1011,9 70 0 0,0
18.07.2019 22:00:00 20,5 10,4 17,2 24,5 25,5 18,1 7 4 11 6 ENE 1011,9 29 0 0,0
18.07.2019 21:00:00 22,5 10,4 19,4 26,8 25,9 18,2 6 3 10 6 E 1011,5 68 41 0,0
18.07.2019 20:00:00 25,1 8,9 25,4 29,5 26,0 18,2 5 3 13 7 E 1011,1 70 60 0,0
18.07.2019 19:00:00 26,0 7,6 27,5 32,0 25,9 18,2 9 5 15 8 E 1011,2 70 60 0,0
18.07.2019 18:00:00 26,2 7,9 29,0 33,4 25,5 18,2 6 4 17 9 SE 1011,4 54 60 0,0
18.07.2019 17:00:00 25,6 8,4 28,2 33,0 25,0 18,2 6 3 13 7 ESE 1011,7 70 24 0,0
18.07.2019 16:00:00 26,0 8,1 30,2 37,0 24,0 18,2 6 3 21 11 E 1012,0 63 60 0,0
18.07.2019 15:00:00 25,8 8,4 31,2 36,3 22,8 18,2 7 4 18 10 NNW 1012,4 26 59 0,0
18.07.2019 14:00:00 24,3 8,9 27,1 35,3 21,5 18,2 8 4 18 10 NW 1012,6 45 58 0,0
18.07.2019 13:00:00 23,5 9,7 27,7 31,5 20,4 18,2 5 3 17 9 N 1012,9 40 38 0,0
18.07.2019 12:00:00 22,3 9,5 26,2 30,9 19,2 18,2 8 4 14 8 NNE 1013,2 53 58 0,0
18.07.2019 11:00:00 21,7 10,1 26,1 27,3 18,2 18,2 6 3 16 9 NNE 1013,5 47 60 0,0
18.07.2019 10:00:00 20,1 9,5 23,2 23,4 17,6 18,2 6 3 13 7 E 1013,6 39 60 0,0
18.07.2019 09:00:00 18,1 10,9 19,8 19,7 17,2 18,2 8 5 13 7 E 1013,6 33 60 0,0
18.07.2019 08:00:00 15,6 10,4 16,9 16,9 17,2 18,2 8 5 14 8 ENE 1013,7 35 60 0,0
18.07.2019 07:00:00 13,8 10,4 12,8 14,7 17,4 18,2 6 3 9 5 NE 1013,8 46 60 0,0
18.07.2019 06:00:00 9,9 9,1 9,1 13,3 17,7 18,2 3 2 6 3 S 1013,6 13 21 0,0
18.07.2019 05:00:00 9,8 9,0 8,4 13,6 18,1 18,2 3 1 8 4 NE 1013,6 21 0 0,0
18.07.2019 04:00:00 10,1 9,0 8,9 14,2 18,6 18,3 3 2 8 4 N 1013,4 28 0 0,0
18.07.2019 03:00:00 10,7 9,3 9,2 14,8 19,0 18,3 4 2 8 4 N 1013,6 26 0 0,0
18.07.2019 02:00:00 11,4 10,1 9,9 15,5 19,5 18,3 1 0 6 3 WNW 1013,7 25 0 0,0
18.07.2019 01:00:00 12,2 10,5 10,5 16,3 20,0 18,3 4 2 5 3 WNW 1013,7 30 0 0,0
18.07.2019 00:00:00 13,5 11,0 11,3 17,2 20,4 18,3 3 2 7 4 ENE 1013,4 47 0 0,0
17.07.2019 23:00:00 15,2 11,7 12,4 18,3 20,9 18,3 4 2 9 5 NE 1013,3 53 0 0,0
17.07.2019 22:00:00 15,9 12,0 13,5 19,6 21,3 18,3 2 1 3 2 E 1013,1 55 0 0,0
17.07.2019 21:00:00 19,5 11,8 16,2 21,6 21,5 18,3 3 1 8 4 N 1012,9 70 14 0,0
17.07.2019 20:00:00 21,8 10,8 21,7 23,5 21,6 18,3 5 3 10 5 N 1012,8 70 11 0,0
17.07.2019 19:00:00 22,3 10,4 24,6 24,6 21,5 18,4 7 4 11 6 N 1012,8 69 7 0,0
17.07.2019 18:00:00 22,4 10,7 23,7 25,5 21,4 18,4 4 2 14 8 NNE 1013,0 64 3 0,0
17.07.2019 17:00:00 22,1 10,4 23,5 26,1 21,1 18,4 6 3 15 8 N 1013,4 70 1 0,0
17.07.2019 16:00:00 22,1 10,3 24,7 26,3 20,7 18,4 6 4 18 10 NNW 1013,5 46 1 0,0
17.07.2019 15:00:00 21,7 10,1 24,1 26,0 20,3 18,4 6 4 19 11 N 1013,5 57 3 0,0
17.07.2019 14:00:00 22,2 10,0 25,1 26,5 19,7 18,4 5 3 19 10 NNW 1013,5 50 11 0,0
17.07.2019 13:00:00 21,5 9,5 24,2 26,5 19,0 18,4 10 6 22 12 NW 1013,7 68 37 0,0
17.07.2019 12:00:00 21,6 10,5 25,3 25,5 18,1 18,4 11 6 23 12 WNW 1013,8 46 49 0,0
17.07.2019 11:00:00 20,0 11,6 23,1 24,5 17,3 18,5 9 5 21 12 NW 1014,0 32 60 0,0
17.07.2019 10:00:00 18,3 12,7 21,2 21,7 16,6 18,5 11 6 26 14 WNW 1014,1 33 55 0,0
17.07.2019 09:00:00 16,3 11,8 17,5 19,0 16,2 18,5 13 7 22 12 WNW 1014,3 17 56 0,0
17.07.2019 08:00:00 15,2 12,0 15,9 16,4 16,1 18,5 9 5 19 11 WNW 1014,2 27 58 0,0
17.07.2019 07:00:00 13,8 11,5 13,1 13,9 16,2 18,5 8 5 14 8 WNW 1014,0 21 60 0,0
17.07.2019 06:00:00 11,5 10,5 10,5 12,5 16,5 18,5 8 5 13 7 W 1013,9 16 5 0,0
17.07.2019 05:00:00 11,4 10,4 8,2 12,8 16,8 18,5 5 3 10 5 W 1013,8 22 0 0,0
17.07.2019 04:00:00 12,3 10,8 10,6 13,5 17,1 18,6 9 5 14 7 W 1013,8 32 0 0,0
17.07.2019 03:00:00 13,3 11,4 11,7 14,2 17,3 18,6 8 5 15 8 WNW 1013,8 34 0 0,0
17.07.2019 02:00:00 14,2 11,7 13,0 14,6 17,6 18,6 6 4 10 5 WNW 1013,8 51 0 0,0
17.07.2019 01:00:00 13,2 11,1 11,0 14,8 17,9 18,6 7 4 11 6 WNW 1013,7 45 0 0,0
17.07.2019 00:00:00 14,4 11,6 12,8 15,6 18,2 18,6 6 4 11 6 WNW 1013,6 61 0 0,0
16.07.2019 23:00:00 15,3 12,0 12,8 16,2 18,4 18,6 6 4 9 5 WNW 1013,3 64 0 0,0
16.07.2019 22:00:00 17,4 12,8 15,2 17,2 18,6 18,6 6 3 23 12 WNW 1013,0 34 5 0,0
16.07.2019 21:00:00 19,3 12,4 18,4 18,0 18,7 18,6 12 7 29 16 WSW 1012,3 70 2 0,0
16.07.2019 20:00:00 20,3 12,1 20,1 18,9 18,7 18,7 13 7 30 16 WSW 1012,5 70 20 0,0
16.07.2019 19:00:00 20,3 11,7 20,2 19,7 18,6 18,7 17 9 31 17 WSW 1012,6 67 19 0,0
16.07.2019 18:00:00 20,2 11,5 21,2 19,7 18,4 18,7 13 7 24 13 WSW 1012,8 70 7 0,0
16.07.2019 17:00:00 18,7 11,1 18,7 19,1 18,3 18,7 12 6 26 14 W 1013,3 70 3 0,0
16.07.2019 16:00:00 19,4 11,0 21,0 19,7 18,1 18,7 15 8 32 17 W 1013,6 47 2 0,0
16.07.2019 15:00:00 18,1 11,1 18,5 19,2 17,9 18,7 21 11 36 20 W 1013,7 51 0 0,0
16.07.2019 14:00:00 18,3 11,5 19,1 19,0 17,7 18,7 18 10 29 15 W 1013,6 41 0 0,0
16.07.2019 13:00:00 17,2 11,5 17,6 18,5 17,5 18,7 17 9 29 16 W 1013,9 45 0 0,0
16.07.2019 12:00:00 16,8 11,0 17,6 18,1 17,3 18,7 19 10 38 20 W 1013,9 50 0 0,0
16.07.2019 11:00:00 16,4 11,2 17,0 17,7 17,1 18,8 20 11 37 20 W 1013,7 38 0 0,0
16.07.2019 10:00:00 15,4 11,3 15,6 16,7 17,1 18,8 16 9 30 16 W 1013,6 41 0 0,0
16.07.2019 09:00:00 14,9 11,4 15,0 16,2 17,0 18,8 16 8 31 17 W 1013,6 41 1 0,0
16.07.2019 08:00:00 14,6 10,9 14,9 15,7 17,0 18,8 16 9 26 14 W 1013,5 56 2 0,0
16.07.2019 07:00:00 14,7 10,1 14,6 14,8 17,1 18,8 16 9 26 14 W 1013,4 53 0 0,0
16.07.2019 06:00:00 14,3 9,7 13,9 14,6 17,3 18,8 18 10 29 15 W 1013,5 47 0 0,0
16.07.2019 05:00:00 14,7 9,3 14,2 14,7 17,5 18,8 13 7 31 17 W 1013,5 51 0 0,0
16.07.2019 04:00:00 15,0 8,6 14,4 14,9 17,7 18,8 10 6 17 9 WSW 1013,7 42 0 0,0
16.07.2019 03:00:00 15,1 8,2 14,5 15,1 17,9 18,8 9 5 17 9 WSW 1014,1 50 0 0,0
16.07.2019 02:00:00 15,1 8,7 14,5 15,4 18,1 18,8 8 4 21 11 WSW 1014,4 43 0 0,0
16.07.2019 01:00:00 15,3 8,9 14,8 15,9 18,3 18,8 11 6 19 10 W 1014,7 43 0 0,0
16.07.2019 00:00:00 15,2 10,5 14,8 16,3 18,5 18,9 7 4 16 9 WNW 1014,9 50 0 0,0
15.07.2019 23:00:00 15,6 10,3 15,1 16,6 18,7 18,9 7 4 12 7 W 1014,9 51 0 0,0
15.07.2019 22:00:00 15,8 10,7 15,3 17,0 18,9 18,9 6 4 11 6 W 1015,0 43 0 0,0
15.07.2019 21:00:00 16,5 10,4 16,1 17,5 19,0 18,9 7 4 20 11 W 1014,9 51 0 0,0
15.07.2019 20:00:00 16,9 10,4 16,8 18,1 19,2 18,9 9 5 20 11 WSW 1015,0 35 0 0,0
15.07.2019 19:00:00 17,0 10,1 17,2 18,5 19,2 18,9 10 6 22 12 W 1015,3 38 0 0,0

tt = Température de l'air
td = dewpoint
tt 5cm = Température de l'air 5cm
tt -5cm = Température de l'air -5cm
tt -20cm = Température de l'air -20cm
tt -100cm = Température de l'air -100cm
ff = Vitesse du vent
fx = gusts
dd = Direction du vent
ppp = reduced air pressure
vv = visibility
sd = Ensoleillement
rr = Quantités de précipitations

stations d'obs. à proximité